Location: De Greiden
(52.9496°N, 5.9137°E)
Time: 02:15:12
(UTC+00:00)

USA 234 - Pass Details

Date: 24 January 2021
Orbit: 1100 x 1107 km, 123.0° (Epoch: 25 February)

Event Time Altitude Azimuth Distance (km) Brightness Sun altitude
Exits shadow 19:16:43 69° 84° (E) 1,173 3.1 -28.3°
Maximum altitude 19:17:32 81° 21° (NNE) 1,122 3.1 -28.4°
Drops below altitude 10° 19:24:06 10° 295° (WNW) 2,968 6.4 -29.4°
Sets 19:26:35 0° 294° (WNW) 3,928 7.2 -29.7°
